Time,TemperatureF,DewpointF,PressureIn,WindDirection,WindDirectionDegrees,WindSpeedMPH,WindSpeedGustMPH,Humidity,HourlyPrecipIn,Conditions,Clouds,dailyrainin,SoftwareType,DateUTC
2013-06-09 00:02:00,69.7,53.7,29.62,North,0,0.0,0.0,57,0.00,,,0.00,WUHU216HW,2013-06-09 07:02:00,
2013-06-09 00:07:00,69.5,53.1,29.62,North,0,0.0,0.0,56,0.00,,,0.00,WUHU216HW,2013-06-09 07:07:00,
2013-06-09 00:12:00,69.5,53.6,29.62,North,0,0.0,0.0,57,0.00,,,0.00,WUHU216HW,2013-06-09 07:12:00,
2013-06-09 00:17:00,69.5,53.6,29.63,North,0,0.0,0.0,57,0.00,,,0.00,WUHU216HW,2013-06-09 07:17:00,
2013-06-09 00:23:00,69.5,53.1,29.63,North,0,0.0,0.0,56,0.00,,,0.00,WUHU216HW,2013-06-09 07:23:00,
2013-06-09 00:28:00,69.5,53.6,29.62,North,0,0.0,0.0,57,0.00,,,0.00,WUHU216HW,2013-06-09 07:28:00,
2013-06-09 00:33:00,69.5,53.6,29.62,North,0,0.0,0.0,57,0.00,,,0.00,WUHU216HW,2013-06-09 07:33:00,
2013-06-09 00:38:00,69.5,53.6,29.63,North,0,0.0,0.0,57,0.00,,,0.00,WUHU216HW,2013-06-09 07:38:00,
2013-06-09 00:43:00,69.5,53.6,29.63,North,0,0.0,0.0,57,0.00,,,0.00,WUHU216HW,2013-06-09 07:43:00,
2013-06-09 00:48:00,69.3,53.4,29.63,North,0,0.0,0.0,57,0.00,,,0.00,WUHU216HW,2013-06-09 07:48:00,
2013-06-09 00:53:00,69.1,53.7,29.63,North,0,0.0,0.0,58,0.00,,,0.00,WUHU216HW,2013-06-09 07:53:00,
2013-06-09 00:58:00,69.1,53.7,29.63,North,0,0.0,0.0,58,0.00,,,0.00,WUHU216HW,2013-06-09 07:58:00,
2013-06-09 01:03:00,68.9,53.6,29.63,North,0,0.0,0.0,58,0.00,,,0.00,WUHU216HW,2013-06-09 08:03:00,
2013-06-09 01:08:00,68.8,53.4,29.63,North,0,0.0,0.0,58,0.00,,,0.00,WUHU216HW,2013-06-09 08:08:00,
2013-06-09 01:13:00,68.6,53.2,29.63,North,0,0.0,0.0,58,0.00,,,0.00,WUHU216HW,2013-06-09 08:13:00,
2013-06-09 01:18:00,68.4,53.6,29.63,North,0,0.0,0.0,59,0.00,,,0.00,WUHU216HW,2013-06-09 08:18:00,
2013-06-09 01:23:00,68.2,53.4,29.63,North,0,0.0,0.0,59,0.00,,,0.00,WUHU216HW,2013-06-09 08:23:00,
2013-06-09 01:28:00,68.0,53.2,29.63,North,0,0.0,0.0,59,0.00,,,0.00,WUHU216HW,2013-06-09 08:28:00,
2013-06-09 01:33:00,67.9,53.5,29.63,North,0,0.0,0.0,60,0.00,,,0.00,WUHU216HW,2013-06-09 08:33:00,
2013-06-09 01:38:00,67.9,53.5,29.63,North,0,0.0,0.0,60,0.00,,,0.00,WUHU216HW,2013-06-09 08:38:00,
2013-06-09 01:43:00,67.7,53.3,29.63,North,0,0.0,0.0,60,0.00,,,0.00,WUHU216HW,2013-06-09 08:43:00,
2013-06-09 01:48:00,67.5,53.6,29.64,North,0,0.0,0.0,61,0.00,,,0.00,WUHU216HW,2013-06-09 08:48:00,
2013-06-09 01:54:00,67.3,53.0,29.64,North,0,0.0,0.0,60,0.00,,,0.00,WUHU216HW,2013-06-09 08:54:00,
2013-06-09 01:59:00,67.3,53.5,29.64,North,0,0.0,0.0,61,0.00,,,0.00,WUHU216HW,2013-06-09 08:59:00,
2013-06-09 02:04:00,67.3,53.5,29.64,North,0,0.0,0.0,61,0.00,,,0.00,WUHU216HW,2013-06-09 09:04:00,
2013-06-09 02:09:00,67.1,53.6,29.64,North,0,0.0,0.0,62,0.00,,,0.00,WUHU216HW,2013-06-09 09:09:00,
2013-06-09 02:14:00,67.0,53.6,29.64,North,0,0.0,0.0,62,0.00,,,0.00,WUHU216HW,2013-06-09 09:14:00,
2013-06-09 02:19:00,67.0,53.6,29.64,North,0,0.0,0.0,62,0.00,,,0.00,WUHU216HW,2013-06-09 09:19:00,
2013-06-09 02:24:00,67.0,53.6,29.64,North,0,0.0,0.0,62,0.00,,,0.00,WUHU216HW,2013-06-09 09:24:00,
2013-06-09 02:29:00,66.8,53.4,29.64,North,0,0.0,0.0,62,0.00,,,0.00,WUHU216HW,2013-06-09 09:29:00,
2013-06-09 02:34:00,66.8,53.4,29.64,North,0,0.0,0.0,62,0.00,,,0.00,WUHU216HW,2013-06-09 09:34:00,
2013-06-09 02:39:00,66.8,53.7,29.64,North,0,0.0,0.0,63,0.00,,,0.00,WUHU216HW,2013-06-09 09:39:00,
2013-06-09 02:44:00,66.6,53.7,29.64,North,0,0.0,0.0,63,0.00,,,0.00,WUHU216HW,2013-06-09 09:44:00,
2013-06-09 02:49:00,66.6,53.7,29.64,North,0,0.0,0.0,63,0.00,,,0.00,WUHU216HW,2013-06-09 09:49:00,
2013-06-09 02:54:00,66.6,53.7,29.64,North,0,0.0,0.0,63,0.00,,,0.00,WUHU216HW,2013-06-09 09:54:00,
2013-06-09 02:59:00,66.4,53.5,29.64,North,0,0.0,0.0,63,0.00,,,0.00,WUHU216HW,2013-06-09 09:59:00,
2013-06-09 03:04:00,66.2,53.6,29.64,North,0,0.0,0.0,64,0.00,,,0.00,WUHU216HW,2013-06-09 10:04:00,
2013-06-09 03:09:00,66.2,53.6,29.65,North,0,0.0,0.0,64,0.00,,,0.00,WUHU216HW,2013-06-09 10:09:00,
2013-06-09 03:14:00,66.1,53.5,29.65,North,0,0.0,0.0,64,0.00,,,0.00,WUHU216HW,2013-06-09 10:14:00,
2013-06-09 03:20:00,65.9,53.4,29.65,North,0,0.0,0.0,64,0.00,,,0.00,WUHU216HW,2013-06-09 10:20:00,
2013-06-09 03:25:00,65.7,53.6,29.65,North,0,0.0,0.0,65,0.00,,,0.00,WUHU216HW,2013-06-09 10:25:00,
2013-06-09 03:30:00,65.5,53.4,29.65,North,0,0.0,0.0,65,0.00,,,0.00,WUHU216HW,2013-06-09 10:30:00,
2013-06-09 03:35:00,65.3,53.3,29.65,North,0,0.0,0.0,65,0.00,,,0.00,WUHU216HW,2013-06-09 10:35:00,
2013-06-09 03:40:00,65.2,53.5,29.66,North,0,0.0,0.0,66,0.00,,,0.00,WUHU216HW,2013-06-09 10:40:00,
2013-06-09 03:45:00,65.2,53.9,29.66,North,0,0.0,0.0,67,0.00,,,0.00,WUHU216HW,2013-06-09 10:45:00,
2013-06-09 03:50:00,65.0,53.3,29.66,North,0,0.0,0.0,66,0.00,,,0.00,WUHU216HW,2013-06-09 10:50:00,
2013-06-09 03:55:00,64.8,53.2,29.66,North,0,0.0,0.0,66,0.00,,,0.00,WUHU216HW,2013-06-09 10:55:00,
2013-06-09 04:00:00,64.6,53.8,29.66,North,0,0.0,0.0,68,0.00,,,0.00,WUHU216HW,2013-06-09 11:00:00,
2013-06-09 04:05:00,64.4,53.6,29.66,North,0,0.0,0.0,68,0.00,,,0.00,WUHU216HW,2013-06-09 11:05:00,
2013-06-09 04:10:00,64.4,53.3,29.66,North,0,0.0,0.0,67,0.00,,,0.00,WUHU216HW,2013-06-09 11:10:00,
2013-06-09 04:15:00,64.3,53.9,29.66,North,0,0.0,0.0,69,0.00,,,0.00,WUHU216HW,2013-06-09 11:15:00,
2013-06-09 04:20:00,64.1,53.3,29.67,North,0,0.0,0.0,68,0.00,,,0.00,WUHU216HW,2013-06-09 11:20:00,
2013-06-09 04:25:00,64.1,53.7,29.67,North,0,0.0,0.0,69,0.00,,,0.00,WUHU216HW,2013-06-09 11:25:00,
2013-06-09 04:30:00,63.7,53.8,29.67,North,0,0.0,0.0,70,0.00,,,0.00,WUHU216HW,2013-06-09 11:30:00,
2013-06-09 04:35:00,63.7,53.8,29.67,North,0,0.0,0.0,70,0.00,,,0.00,WUHU216HW,2013-06-09 11:35:00,
2013-06-09 04:40:00,63.7,53.8,29.67,North,0,0.0,0.0,70,0.00,,,0.00,WUHU216HW,2013-06-09 11:40:00,
2013-06-09 04:45:00,63.5,53.6,29.67,North,0,0.0,0.0,70,0.00,,,0.00,WUHU216HW,2013-06-09 11:45:00,
2013-06-09 04:50:00,63.4,53.5,29.67,North,0,0.0,0.0,70,0.00,,,0.00,WUHU216HW,2013-06-09 11:50:00,
2013-06-09 04:55:00,63.2,53.6,29.67,North,0,0.0,0.0,71,0.00,,,0.00,WUHU216HW,2013-06-09 11:55:00,
2013-06-09 05:00:00,63.2,53.3,29.67,North,0,0.0,0.0,70,0.00,,,0.00,WUHU216HW,2013-06-09 12:00:00,
2013-06-09 05:05:00,63.0,53.5,29.67,North,0,0.0,0.0,71,0.00,,,0.00,WUHU216HW,2013-06-09 12:05:00,
2013-06-09 05:10:00,63.0,53.5,29.68,North,0,0.0,0.0,71,0.00,,,0.00,WUHU216HW,2013-06-09 12:10:00,
2013-06-09 05:16:00,63.0,53.5,29.68,North,0,0.0,0.0,71,0.00,,,0.00,WUHU216HW,2013-06-09 12:16:00,
2013-06-09 05:21:00,62.8,53.3,29.68,North,0,0.0,0.0,71,0.00,,,0.00,WUHU216HW,2013-06-09 12:21:00,
2013-06-09 05:26:00,62.6,53.5,29.68,North,0,0.0,0.0,72,0.00,,,0.00,WUHU216HW,2013-06-09 12:26:00,
2013-06-09 05:31:00,62.6,53.5,29.68,North,0,0.0,0.0,72,0.00,,,0.00,WUHU216HW,2013-06-09 12:31:00,
2013-06-09 05:36:00,62.6,53.5,29.69,North,0,0.0,0.0,72,0.00,,,0.00,WUHU216HW,2013-06-09 12:36:00,
2013-06-09 05:41:00,62.5,53.3,29.68,North,0,0.0,0.0,72,0.00,,,0.00,WUHU216HW,2013-06-09 12:41:00,
2013-06-09 05:46:00,62.5,53.3,29.68,North,0,0.0,0.0,72,0.00,,,0.00,WUHU216HW,2013-06-09 12:46:00,
2013-06-09 05:52:00,62.3,53.5,29.68,North,0,0.0,0.0,73,0.00,,,0.00,WUHU216HW,2013-06-09 12:52:00,
2013-06-09 05:57:00,62.3,53.1,29.68,North,0,0.0,0.0,72,0.00,,,0.00,WUHU216HW,2013-06-09 12:57:00,
2013-06-09 06:02:00,62.3,53.5,29.68,North,0,0.0,0.0,73,0.00,,,0.00,WUHU216HW,2013-06-09 13:02:00,
2013-06-09 06:07:00,62.3,53.5,29.68,North,0,0.0,0.0,73,0.00,,,0.00,WUHU216HW,2013-06-09 13:07:00,
2013-06-09 06:12:00,62.3,53.5,29.68,North,0,0.0,0.0,73,0.00,,,0.00,WUHU216HW,2013-06-09 13:12:00,
2013-06-09 06:17:00,62.3,53.5,29.69,North,0,0.0,0.0,73,0.00,,,0.00,WUHU216HW,2013-06-09 13:17:00,
2013-06-09 06:22:00,62.3,53.5,29.69,North,0,0.0,0.0,73,0.00,,,0.00,WUHU216HW,2013-06-09 13:22:00,
2013-06-09 06:27:00,62.3,53.5,29.69,North,0,0.0,0.0,73,0.00,,,0.00,WUHU216HW,2013-06-09 13:27:00,
2013-06-09 06:32:00,62.3,53.5,29.69,North,0,0.0,0.0,73,0.00,,,0.00,WUHU216HW,2013-06-09 13:32:00,
2013-06-09 06:37:00,62.3,53.5,29.69,North,0,0.0,0.0,73,0.00,,,0.00,WUHU216HW,2013-06-09 13:37:00,
2013-06-09 06:43:00,62.3,53.5,29.69,North,0,0.0,0.0,73,0.00,,,0.00,WUHU216HW,2013-06-09 13:43:00,
2013-06-09 06:48:00,62.5,53.6,29.69,North,0,0.0,0.0,73,0.00,,,0.00,WUHU216HW,2013-06-09 13:48:00,
2013-06-09 06:53:00,62.6,53.8,29.69,North,0,0.0,0.0,73,0.00,,,0.00,WUHU216HW,2013-06-09 13:53:00,
2013-06-09 06:58:00,62.8,54.4,29.69,North,0,0.0,0.0,74,0.00,,,0.00,WUHU216HW,2013-06-09 13:58:00,
2013-06-09 07:03:00,63.0,54.5,29.69,North,0,0.0,0.0,74,0.00,,,0.00,WUHU216HW,2013-06-09 14:03:00,
2013-06-09 07:08:00,63.0,54.2,29.69,North,0,0.0,0.0,73,0.00,,,0.00,WUHU216HW,2013-06-09 14:08:00,
2013-06-09 07:13:00,63.4,54.5,29.69,North,0,0.0,0.0,73,0.00,,,0.00,WUHU216HW,2013-06-09 14:13:00,
2013-06-09 07:18:00,63.7,54.9,29.69,North,0,0.0,0.0,73,0.00,,,0.00,WUHU216HW,2013-06-09 14:18:00,
2013-06-09 07:23:00,63.9,55.1,29.69,North,0,0.0,0.0,73,0.00,,,0.00,WUHU216HW,2013-06-09 14:23:00,
2013-06-09 07:28:00,64.3,55.1,29.70,North,0,0.0,0.0,72,0.00,,,0.00,WUHU216HW,2013-06-09 14:28:00,
2013-06-09 07:33:00,64.4,55.3,29.70,North,0,0.0,0.0,72,0.00,,,0.00,WUHU216HW,2013-06-09 14:33:00,
2013-06-09 07:38:00,64.6,55.1,29.70,North,0,0.0,0.0,71,0.00,,,0.00,WUHU216HW,2013-06-09 14:38:00,
2013-06-09 07:43:00,64.8,55.3,29.71,North,0,0.0,0.0,71,0.00,,,0.00,WUHU216HW,2013-06-09 14:43:00,
2013-06-09 07:48:00,65.0,55.0,29.71,North,0,0.0,0.0,70,0.00,,,0.00,WUHU216HW,2013-06-09 14:48:00,
2013-06-09 07:53:00,65.2,55.5,29.71,North,0,0.0,0.0,71,0.00,,,0.00,WUHU216HW,2013-06-09 14:53:00,
2013-06-09 07:58:00,65.2,55.2,29.71,North,0,0.0,0.0,70,0.00,,,0.00,WUHU216HW,2013-06-09 14:58:00,
2013-06-09 08:03:00,65.3,55.4,29.72,North,0,0.0,0.0,70,0.00,,,0.00,WUHU216HW,2013-06-09 15:03:00,
2013-06-09 08:09:00,65.3,55.4,29.72,North,0,0.0,0.0,70,0.00,,,0.00,WUHU216HW,2013-06-09 15:09:00,
2013-06-09 08:14:00,65.5,55.5,29.72,North,0,0.0,0.0,70,0.00,,,0.00,WUHU216HW,2013-06-09 15:14:00,
2013-06-09 08:19:00,65.9,55.8,29.72,North,0,0.0,0.0,70,0.00,,,0.00,WUHU216HW,2013-06-09 15:19:00,
2013-06-09 08:24:00,66.1,56.0,29.72,North,0,0.0,0.0,70,0.00,,,0.00,WUHU216HW,2013-06-09 15:24:00,
2013-06-09 08:29:00,66.1,56.0,29.72,North,0,0.0,0.0,70,0.00,,,0.00,WUHU216HW,2013-06-09 15:29:00,
2013-06-09 08:34:00,66.2,55.7,29.72,North,0,0.0,0.0,69,0.00,,,0.00,WUHU216HW,2013-06-09 15:34:00,
2013-06-09 08:39:00,66.6,56.1,29.72,North,0,0.0,0.0,69,0.00,,,0.00,WUHU216HW,2013-06-09 15:39:00,
2013-06-09 08:44:00,66.8,56.3,29.72,North,0,0.0,0.0,69,0.00,,,0.00,WUHU216HW,2013-06-09 15:44:00,
2013-06-09 08:49:00,67.1,56.3,29.72,North,0,0.0,0.0,68,0.00,,,0.00,WUHU216HW,2013-06-09 15:49:00,
2013-06-09 08:54:00,67.1,56.3,29.72,North,0,0.0,0.0,68,0.00,,,0.00,WUHU216HW,2013-06-09 15:54:00,
2013-06-09 08:59:00,67.3,56.4,29.72,North,0,0.0,0.0,68,0.00,,,0.00,WUHU216HW,2013-06-09 15:59:00,
2013-06-09 09:04:00,67.5,56.2,29.72,North,0,0.0,0.0,67,0.00,,,0.00,WUHU216HW,2013-06-09 16:04:00,
2013-06-09 09:09:00,67.7,56.4,29.72,North,0,0.0,0.0,67,0.00,,,0.00,WUHU216HW,2013-06-09 16:09:00,
2013-06-09 09:14:00,68.0,56.3,29.72,North,0,0.0,0.0,66,0.00,,,0.00,WUHU216HW,2013-06-09 16:14:00,
2013-06-09 09:19:00,68.0,56.3,29.72,North,0,0.0,0.0,66,0.00,,,0.00,WUHU216HW,2013-06-09 16:19:00,
2013-06-09 09:24:00,68.4,56.6,29.72,North,0,0.0,0.0,66,0.00,,,0.00,WUHU216HW,2013-06-09 16:24:00,
2013-06-09 09:29:00,68.9,57.1,29.72,North,0,0.0,0.0,66,0.00,,,0.00,WUHU216HW,2013-06-09 16:29:00,
2013-06-09 09:34:00,69.3,57.0,29.72,North,0,0.0,0.0,65,0.00,,,0.00,WUHU216HW,2013-06-09 16:34:00,
2013-06-09 09:39:00,69.7,57.3,29.72,North,0,0.0,0.0,65,0.00,,,0.00,WUHU216HW,2013-06-09 16:39:00,
2013-06-09 09:44:00,69.8,57.1,29.72,North,0,0.0,0.0,64,0.00,,,0.00,WUHU216HW,2013-06-09 16:44:00,
2013-06-09 09:49:00,70.2,57.4,29.72,North,0,0.0,0.0,64,0.00,,,0.00,WUHU216HW,2013-06-09 16:49:00,
2013-06-09 09:54:00,70.2,57.1,29.72,North,0,0.0,0.0,63,0.00,,,0.00,WUHU216HW,2013-06-09 16:54:00,
2013-06-09 09:59:00,70.4,57.2,29.72,North,0,0.0,0.0,63,0.00,,,0.00,WUHU216HW,2013-06-09 16:59:00,
2013-06-09 10:05:00,70.7,57.1,29.72,North,0,0.0,0.0,62,0.00,,,0.00,WUHU216HW,2013-06-09 17:05:00,
2013-06-09 10:10:00,70.9,57.2,29.72,North,0,0.0,0.0,62,0.00,,,0.00,WUHU216HW,2013-06-09 17:10:00,
2013-06-09 10:15:00,70.9,57.7,29.72,North,0,0.0,0.0,63,0.00,,,0.00,WUHU216HW,2013-06-09 17:15:00,
2013-06-09 10:20:00,71.3,57.6,29.73,North,0,0.0,0.0,62,0.00,,,0.00,WUHU216HW,2013-06-09 17:20:00,
2013-06-09 10:25:00,71.3,57.2,29.72,North,0,0.0,0.0,61,0.00,,,0.00,WUHU216HW,2013-06-09 17:25:00,
2013-06-09 10:30:00,71.3,57.6,29.72,North,0,0.0,0.0,62,0.00,,,0.00,WUHU216HW,2013-06-09 17:30:00,
2013-06-09 10:35:00,71.6,57.5,29.72,North,0,0.0,0.0,61,0.00,,,0.00,WUHU216HW,2013-06-09 17:35:00,
2013-06-09 10:40:00,72.0,57.8,29.72,North,0,0.0,0.0,61,0.00,,,0.00,WUHU216HW,2013-06-09 17:40:00,
2013-06-09 10:45:00,72.4,57.7,29.72,North,0,0.0,0.0,60,0.00,,,0.00,WUHU216HW,2013-06-09 17:45:00,
2013-06-09 10:50:00,72.5,57.9,29.72,North,0,0.0,0.0,60,0.00,,,0.00,WUHU216HW,2013-06-09 17:50:00,
2013-06-09 10:55:00,72.5,57.3,29.73,North,0,0.0,0.0,59,0.00,,,0.00,WUHU216HW,2013-06-09 17:55:00,
2013-06-09 11:00:00,72.4,57.3,29.72,North,0,0.0,0.0,59,0.00,,,0.00,WUHU216HW,2013-06-09 18:00:00,
2013-06-09 11:05:00,72.7,57.5,29.72,North,0,0.0,0.0,59,0.00,,,0.00,WUHU216HW,2013-06-09 18:05:00,
2013-06-09 11:10:00,73.1,57.3,29.72,North,0,0.0,0.0,58,0.00,,,0.00,WUHU216HW,2013-06-09 18:10:00,
2013-06-09 11:15:00,73.4,57.7,29.72,North,0,0.0,0.0,58,0.00,,,0.00,WUHU216HW,2013-06-09 18:15:00,
2013-06-09 11:20:00,74.0,57.7,29.72,North,0,0.0,0.0,57,0.00,,,0.00,WUHU216HW,2013-06-09 18:20:00,
2013-06-09 11:25:00,74.3,58.1,29.72,North,0,0.0,0.0,57,0.00,,,0.00,WUHU216HW,2013-06-09 18:25:00,
2013-06-09 11:31:00,74.5,57.8,29.72,North,0,0.0,0.0,56,0.00,,,0.00,WUHU216HW,2013-06-09 18:31:00,
2013-06-09 11:36:00,74.5,57.8,29.72,North,0,0.0,0.0,56,0.00,,,0.00,WUHU216HW,2013-06-09 18:36:00,
2013-06-09 11:41:00,74.9,58.2,29.72,North,0,0.0,0.0,56,0.00,,,0.00,WUHU216HW,2013-06-09 18:41:00,
2013-06-09 11:46:00,75.1,58.3,29.72,North,0,0.0,0.0,56,0.00,,,0.00,WUHU216HW,2013-06-09 18:46:00,
2013-06-09 11:51:00,74.9,57.6,29.73,North,0,0.0,0.0,55,0.00,,,0.00,WUHU216HW,2013-06-09 18:51:00,
2013-06-09 11:56:00,75.2,58.5,29.73,North,0,0.0,0.0,56,0.00,,,0.00,WUHU216HW,2013-06-09 18:56:00,
2013-06-09 12:01:00,76.0,58.6,29.73,North,0,0.0,0.0,55,0.00,,,0.00,WUHU216HW,2013-06-09 19:01:00,
2013-06-09 12:06:00,76.1,58.2,29.72,North,0,0.0,0.0,54,0.00,,,0.00,WUHU216HW,2013-06-09 19:06:00,
2013-06-09 12:12:00,76.5,58.6,29.73,North,0,0.0,0.0,54,0.00,,,0.00,WUHU216HW,2013-06-09 19:12:00,
2013-06-09 12:17:00,76.5,58.1,29.72,North,0,0.0,0.0,53,0.00,,,0.00,WUHU216HW,2013-06-09 19:17:00,
2013-06-09 12:22:00,76.5,58.1,29.72,North,0,0.0,0.0,53,0.00,,,0.00,WUHU216HW,2013-06-09 19:22:00,
2013-06-09 12:27:00,77.0,59.0,29.72,North,0,0.0,0.0,54,0.00,,,0.00,WUHU216HW,2013-06-09 19:27:00,
2013-06-09 12:32:00,77.6,59.0,29.72,North,0,0.0,0.0,53,0.00,,,0.00,WUHU216HW,2013-06-09 19:32:00,
2013-06-09 12:37:00,78.1,59.0,29.73,North,0,0.0,0.0,52,0.00,,,0.00,WUHU216HW,2013-06-09 19:37:00,
2013-06-09 12:42:00,78.1,59.0,29.73,North,0,0.0,0.0,52,0.00,,,0.00,WUHU216HW,2013-06-09 19:42:00,
2013-06-09 12:47:00,78.1,58.6,29.73,North,0,0.0,0.0,51,0.00,,,0.00,WUHU216HW,2013-06-09 19:47:00,
2013-06-09 12:52:00,78.1,58.6,29.72,North,0,0.0,0.0,51,0.00,,,0.00,WUHU216HW,2013-06-09 19:52:00,
2013-06-09 12:57:00,78.5,58.9,29.73,North,0,0.0,0.0,51,0.00,,,0.00,WUHU216HW,2013-06-09 19:57:00,
2013-06-09 13:02:00,78.8,59.2,29.72,North,0,0.0,0.0,51,0.00,,,0.00,WUHU216HW,2013-06-09 20:02:00,
2013-06-09 13:07:00,79.0,58.9,29.72,North,0,0.0,0.0,50,0.00,,,0.00,WUHU216HW,2013-06-09 20:07:00,
2013-06-09 13:12:00,79.2,59.1,29.72,North,0,0.0,0.0,50,0.00,,,0.00,WUHU216HW,2013-06-09 20:12:00,
2013-06-09 13:17:00,79.4,59.1,29.72,North,0,0.0,0.0,50,0.00,,,0.00,WUHU216HW,2013-06-09 20:17:00,
2013-06-09 13:23:00,79.7,59.5,29.73,North,0,0.0,0.0,50,0.00,,,0.00,WUHU216HW,2013-06-09 20:23:00,
2013-06-09 13:28:00,79.9,59.0,29.72,North,0,0.0,0.0,49,0.00,,,0.00,WUHU216HW,2013-06-09 20:28:00,
2013-06-09 13:33:00,79.7,58.9,29.72,North,0,0.0,0.0,49,0.00,,,0.00,WUHU216HW,2013-06-09 20:33:00,
2013-06-09 13:38:00,80.1,59.2,29.72,North,0,0.0,0.0,49,0.00,,,0.00,WUHU216HW,2013-06-09 20:38:00,
2013-06-09 13:43:00,80.5,59.5,29.72,North,0,0.0,0.0,49,0.00,,,0.00,WUHU216HW,2013-06-09 20:43:00,
2013-06-09 13:48:00,81.0,58.8,29.72,North,0,0.0,0.0,47,0.00,,,0.00,WUHU216HW,2013-06-09 20:48:00,
2013-06-09 13:53:00,81.2,59.0,29.72,North,0,0.0,0.0,47,0.00,,,0.00,WUHU216HW,2013-06-09 20:53:00,
2013-06-09 13:58:00,81.2,59.0,29.71,North,0,0.0,0.0,47,0.00,,,0.00,WUHU216HW,2013-06-09 20:58:00,
2013-06-09 14:03:00,81.7,59.4,29.71,North,0,0.0,0.0,47,0.00,,,0.00,WUHU216HW,2013-06-09 21:03:00,
2013-06-09 14:08:00,81.9,58.4,29.71,North,0,0.0,0.0,45,0.00,,,0.00,WUHU216HW,2013-06-09 21:08:00,
2013-06-09 14:13:00,81.7,58.9,29.71,North,0,0.0,0.0,46,0.00,,,0.00,WUHU216HW,2013-06-09 21:13:00,
2013-06-09 14:18:00,81.7,58.9,29.70,North,0,0.0,0.0,46,0.00,,,0.00,WUHU216HW,2013-06-09 21:18:00,
2013-06-09 14:23:00,81.7,58.9,29.70,North,0,0.0,0.0,46,0.00,,,0.00,WUHU216HW,2013-06-09 21:23:00,
2013-06-09 14:28:00,82.1,59.1,29.70,North,0,0.0,0.0,46,0.00,,,0.00,WUHU216HW,2013-06-09 21:28:00,
2013-06-09 14:33:00,82.4,58.9,29.70,North,0,0.0,0.0,45,0.00,,,0.00,WUHU216HW,2013-06-09 21:33:00,
2013-06-09 14:38:00,82.4,58.9,29.70,North,0,0.0,0.0,45,0.00,,,0.00,WUHU216HW,2013-06-09 21:38:00,
2013-06-09 14:43:00,82.4,58.9,29.70,North,0,0.0,0.0,45,0.00,,,0.00,WUHU216HW,2013-06-09 21:43:00,
2013-06-09 14:48:00,82.6,58.4,29.70,North,0,0.0,0.0,44,0.00,,,0.00,WUHU216HW,2013-06-09 21:48:00,
2013-06-09 14:53:00,82.8,58.6,29.70,North,0,0.0,0.0,44,0.00,,,0.00,WUHU216HW,2013-06-09 21:53:00,
2013-06-09 14:58:00,82.8,58.0,29.69,North,0,0.0,0.0,43,0.00,,,0.00,WUHU216HW,2013-06-09 21:58:00,
2013-06-09 15:04:00,82.6,58.4,29.69,North,0,0.0,0.0,44,0.00,,,0.00,WUHU216HW,2013-06-09 22:04:00,
2013-06-09 15:09:00,82.4,58.2,29.69,North,0,0.0,0.0,44,0.00,,,0.00,WUHU216HW,2013-06-09 22:09:00,
2013-06-09 15:14:00,82.4,58.2,29.69,North,0,0.0,0.0,44,0.00,,,0.00,WUHU216HW,2013-06-09 22:14:00,
2013-06-09 15:19:00,82.4,58.2,29.69,North,0,0.0,0.0,44,0.00,,,0.00,WUHU216HW,2013-06-09 22:19:00,
2013-06-09 15:24:00,82.6,58.4,29.70,North,0,0.0,0.0,44,0.00,,,0.00,WUHU216HW,2013-06-09 22:24:00,
2013-06-09 15:29:00,83.0,58.8,29.70,North,0,0.0,0.0,44,0.00,,,0.00,WUHU216HW,2013-06-09 22:29:00,
2013-06-09 15:34:00,83.2,59.0,29.71,North,0,0.0,0.0,44,0.00,,,0.00,WUHU216HW,2013-06-09 22:34:00,
2013-06-09 15:39:00,83.5,59.2,29.70,North,0,0.0,0.0,44,0.00,,,0.00,WUHU216HW,2013-06-09 22:39:00,
2013-06-09 15:44:00,83.5,58.7,29.71,North,0,0.0,0.0,43,0.00,,,0.00,WUHU216HW,2013-06-09 22:44:00,
2013-06-09 15:49:00,83.2,58.3,29.71,North,0,0.0,0.0,43,0.00,,,0.00,WUHU216HW,2013-06-09 22:49:00,
2013-06-09 15:54:00,83.0,58.8,29.71,North,0,0.0,0.0,44,0.00,,,0.00,WUHU216HW,2013-06-09 22:54:00,
2013-06-09 15:59:00,82.8,58.6,29.72,North,0,0.0,0.0,44,0.00,,,0.00,WUHU216HW,2013-06-09 22:59:00,
2013-06-09 16:04:00,83.0,58.8,29.72,North,0,0.0,0.0,44,0.00,,,0.00,WUHU216HW,2013-06-09 23:04:00,
2013-06-09 16:09:00,83.2,58.3,29.72,North,0,0.0,0.0,43,0.00,,,0.00,WUHU216HW,2013-06-09 23:09:00,
2013-06-09 16:14:00,82.4,57.6,29.72,North,0,0.0,0.0,43,0.00,,,0.00,WUHU216HW,2013-06-09 23:14:00,
2013-06-09 16:19:00,81.9,57.8,29.72,North,0,0.0,0.0,44,0.00,,,0.00,WUHU216HW,2013-06-09 23:19:00,
2013-06-09 16:24:00,81.7,57.6,29.72,North,0,0.0,0.0,44,0.00,,,0.00,WUHU216HW,2013-06-09 23:24:00,
2013-06-09 16:29:00,81.7,57.6,29.72,North,0,0.0,0.0,44,0.00,,,0.00,WUHU216HW,2013-06-09 23:29:00,
2013-06-09 16:34:00,81.0,57.6,29.71,North,0,0.0,0.0,45,0.00,,,0.00,WUHU216HW,2013-06-09 23:34:00,
2013-06-09 16:40:00,80.6,57.2,29.72,North,0,0.0,0.0,45,0.00,,,0.00,WUHU216HW,2013-06-09 23:40:00,
2013-06-09 16:45:00,80.3,57.5,29.72,North,0,0.0,0.0,46,0.00,,,0.00,WUHU216HW,2013-06-09 23:45:00,
2013-06-09 16:50:00,79.9,57.3,29.72,North,0,0.0,0.0,46,0.00,,,0.00,WUHU216HW,2013-06-09 23:50:00,
2013-06-09 16:55:00,79.6,56.9,29.71,North,0,0.0,0.0,46,0.00,,,0.00,WUHU216HW,2013-06-09 23:55:00,
2013-06-09 17:00:00,79.2,57.2,29.71,North,0,0.0,0.0,47,0.00,,,0.00,WUHU216HW,2013-06-10 00:00:00,
2013-06-09 17:05:00,78.8,56.9,29.71,North,0,0.0,0.0,47,0.00,,,0.00,WUHU216HW,2013-06-10 00:05:00,
2013-06-09 17:10:00,78.1,56.8,29.71,North,0,0.0,0.0,48,0.00,,,0.00,WUHU216HW,2013-06-10 00:10:00,
2013-06-09 17:15:00,77.4,56.2,29.70,North,0,0.0,0.0,48,0.00,,,0.00,WUHU216HW,2013-06-10 00:15:00,
2013-06-09 17:20:00,77.4,56.8,29.70,North,0,0.0,0.0,49,0.00,,,0.00,WUHU216HW,2013-06-10 00:20:00,
2013-06-09 17:25:00,77.4,56.8,29.70,North,0,0.0,0.0,49,0.00,,,0.00,WUHU216HW,2013-06-10 00:25:00,
2013-06-09 17:30:00,76.9,56.9,29.69,North,0,0.0,0.0,50,0.00,,,0.00,WUHU216HW,2013-06-10 00:30:00,
2013-06-09 17:35:00,76.1,56.3,29.69,North,0,0.0,0.0,50,0.00,,,0.00,WUHU216HW,2013-06-10 00:35:00,
2013-06-09 17:40:00,75.8,56.4,29.69,North,0,0.0,0.0,51,0.00,,,0.00,WUHU216HW,2013-06-10 00:40:00,
2013-06-09 17:45:00,75.2,56.4,29.69,North,0,0.0,0.0,52,0.00,,,0.00,WUHU216HW,2013-06-10 00:45:00,
2013-06-09 17:50:00,74.5,55.7,29.69,North,0,0.0,0.0,52,0.00,,,0.00,WUHU216HW,2013-06-10 00:50:00,
2013-06-09 17:55:00,74.5,56.3,29.69,North,0,0.0,0.0,53,0.00,,,0.00,WUHU216HW,2013-06-10 00:55:00,
2013-06-09 18:00:00,74.2,55.9,29.69,North,0,0.0,0.0,53,0.00,,,0.00,WUHU216HW,2013-06-10 01:00:00,
2013-06-09 18:05:00,74.0,55.7,29.70,North,0,0.0,0.0,53,0.00,,,0.00,WUHU216HW,2013-06-10 01:05:00,
2013-06-09 18:10:00,73.3,55.5,29.71,North,0,0.0,0.0,54,0.00,,,0.00,WUHU216HW,2013-06-10 01:10:00,
2013-06-09 18:16:00,72.5,55.4,29.71,North,0,0.0,0.0,55,0.00,,,0.00,WUHU216HW,2013-06-10 01:16:00,
2013-06-09 18:21:00,72.0,55.4,29.72,North,0,0.0,0.0,56,0.00,,,0.00,WUHU216HW,2013-06-10 01:21:00,
2013-06-09 18:26:00,72.0,55.9,29.71,North,0,0.0,0.0,57,0.00,,,0.00,WUHU216HW,2013-06-10 01:26:00,
2013-06-09 18:31:00,72.2,55.5,29.71,North,0,0.0,0.0,56,0.00,,,0.00,WUHU216HW,2013-06-10 01:31:00,
2013-06-09 18:36:00,71.8,55.7,29.71,North,0,0.0,0.0,57,0.00,,,0.00,WUHU216HW,2013-06-10 01:36:00,
2013-06-09 18:41:00,71.3,55.3,29.71,North,0,0.0,0.0,57,0.00,,,0.00,WUHU216HW,2013-06-10 01:41:00,
2013-06-09 18:46:00,70.9,55.5,29.71,North,0,0.0,0.0,58,0.00,,,0.00,WUHU216HW,2013-06-10 01:46:00,
2013-06-09 18:51:00,70.9,55.5,29.70,North,0,0.0,0.0,58,0.00,,,0.00,WUHU216HW,2013-06-10 01:51:00,
2013-06-09 18:56:00,70.9,55.5,29.70,North,0,0.0,0.0,58,0.00,,,0.00,WUHU216HW,2013-06-10 01:56:00,
2013-06-09 19:01:00,70.9,55.5,29.70,North,0,0.0,0.0,58,0.00,,,0.00,WUHU216HW,2013-06-10 02:01:00,
2013-06-09 19:07:00,70.7,55.3,29.71,North,0,0.0,0.0,58,0.00,,,0.00,WUHU216HW,2013-06-10 02:07:00,
2013-06-09 19:12:00,70.4,54.5,29.71,North,0,0.0,0.0,57,0.00,,,0.00,WUHU216HW,2013-06-10 02:12:00,
2013-06-09 19:17:00,69.8,53.9,29.72,North,0,0.0,0.0,57,0.00,,,0.00,WUHU216HW,2013-06-10 02:17:00,
2013-06-09 19:22:00,69.5,54.1,29.72,North,0,0.0,0.0,58,0.00,,,0.00,WUHU216HW,2013-06-10 02:22:00,
2013-06-09 19:27:00,69.3,54.4,29.72,North,0,0.0,0.0,59,0.00,,,0.00,WUHU216HW,2013-06-10 02:27:00,
2013-06-09 19:32:00,69.1,54.2,29.72,North,0,0.0,0.0,59,0.00,,,0.00,WUHU216HW,2013-06-10 02:32:00,
2013-06-09 19:37:00,68.9,54.0,29.72,North,0,0.0,0.0,59,0.00,,,0.00,WUHU216HW,2013-06-10 02:37:00,
2013-06-09 19:42:00,68.8,53.9,29.72,North,0,0.0,0.0,59,0.00,,,0.00,WUHU216HW,2013-06-10 02:42:00,
2013-06-09 19:47:00,68.2,53.8,29.72,North,0,0.0,0.0,60,0.00,,,0.00,WUHU216HW,2013-06-10 02:47:00,
2013-06-09 19:52:00,67.9,53.5,29.73,North,0,0.0,0.0,60,0.00,,,0.00,WUHU216HW,2013-06-10 02:52:00,
2013-06-09 19:57:00,67.7,53.7,29.73,North,0,0.0,0.0,61,0.00,,,0.00,WUHU216HW,2013-06-10 02:57:00,
2013-06-09 20:02:00,67.5,53.6,29.72,North,0,0.0,0.0,61,0.00,,,0.00,WUHU216HW,2013-06-10 03:02:00,
2013-06-09 20:07:00,67.1,54.1,29.73,North,0,0.0,0.0,63,0.00,,,0.00,WUHU216HW,2013-06-10 03:07:00,
2013-06-09 20:12:00,67.0,53.9,29.73,North,0,0.0,0.0,63,0.00,,,0.00,WUHU216HW,2013-06-10 03:12:00,
2013-06-09 20:17:00,66.6,53.7,29.74,North,0,0.0,0.0,63,0.00,,,0.00,WUHU216HW,2013-06-10 03:17:00,
2013-06-09 20:22:00,66.4,53.8,29.74,North,0,0.0,0.0,64,0.00,,,0.00,WUHU216HW,2013-06-10 03:22:00,
2013-06-09 20:27:00,66.1,53.5,29.74,North,0,0.0,0.0,64,0.00,,,0.00,WUHU216HW,2013-06-10 03:27:00,
2013-06-09 20:32:00,65.9,53.7,29.74,North,0,0.0,0.0,65,0.00,,,0.00,WUHU216HW,2013-06-10 03:32:00,
2013-06-09 20:38:00,65.5,53.4,29.73,North,0,0.0,0.0,65,0.00,,,0.00,WUHU216HW,2013-06-10 03:38:00,
2013-06-09 20:43:00,65.2,53.5,29.73,North,0,0.0,0.0,66,0.00,,,0.00,WUHU216HW,2013-06-10 03:43:00,
2013-06-09 20:48:00,65.2,53.5,29.72,North,0,0.0,0.0,66,0.00,,,0.00,WUHU216HW,2013-06-10 03:48:00,
2013-06-09 20:53:00,64.8,53.2,29.73,North,0,0.0,0.0,66,0.00,,,0.00,WUHU216HW,2013-06-10 03:53:00,
2013-06-09 20:58:00,64.8,53.2,29.73,North,0,0.0,0.0,66,0.00,,,0.00,WUHU216HW,2013-06-10 03:58:00,
2013-06-09 21:01:00,64.6,53.4,29.73,North,0,0.0,0.0,67,0.00,,,0.00,WUHU216HW,2013-06-10 04:01:00,
2013-06-09 21:02:00,64.6,53.4,29.73,North,0,0.0,0.0,67,0.00,,,0.00,WUHU216HW,2013-06-10 04:02:00,
2013-06-09 21:03:00,64.6,53.4,29.73,North,0,0.0,0.0,67,0.00,,,0.00,WUHU216HW,2013-06-10 04:03:00,
2013-06-09 21:08:00,64.3,53.1,29.73,North,0,0.0,0.0,67,0.00,,,0.00,WUHU216HW,2013-06-10 04:08:00,
2013-06-09 21:13:00,64.1,53.3,29.74,North,0,0.0,0.0,68,0.00,,,0.00,WUHU216HW,2013-06-10 04:13:00,
2013-06-09 21:18:00,63.9,53.6,29.74,North,0,0.0,0.0,69,0.00,,,0.00,WUHU216HW,2013-06-10 04:18:00,
2013-06-09 21:23:00,63.7,53.8,29.74,North,0,0.0,0.0,70,0.00,,,0.00,WUHU216HW,2013-06-10 04:23:00,
2013-06-09 21:28:00,63.5,53.2,29.74,North,0,0.0,0.0,69,0.00,,,0.00,WUHU216HW,2013-06-10 04:28:00,
2013-06-09 21:33:00,63.4,53.0,29.74,North,0,0.0,0.0,69,0.00,,,0.00,WUHU216HW,2013-06-10 04:33:00,
2013-06-09 21:38:00,63.4,53.5,29.75,North,0,0.0,0.0,70,0.00,,,0.00,WUHU216HW,2013-06-10 04:38:00,
2013-06-09 21:43:00,63.2,53.3,29.75,North,0,0.0,0.0,70,0.00,,,0.00,WUHU216HW,2013-06-10 04:43:00,
2013-06-09 21:48:00,63.0,53.1,29.75,North,0,0.0,0.0,70,0.00,,,0.00,WUHU216HW,2013-06-10 04:48:00,
2013-06-09 21:53:00,63.0,53.5,29.75,North,0,0.0,0.0,71,0.00,,,0.00,WUHU216HW,2013-06-10 04:53:00,
2013-06-09 21:59:00,63.0,53.5,29.76,North,0,0.0,0.0,71,0.00,,,0.00,WUHU216HW,2013-06-10 04:59:00,
2013-06-09 22:04:00,63.0,53.1,29.76,North,0,0.0,0.0,70,0.00,,,0.00,WUHU216HW,2013-06-10 05:04:00,
2013-06-09 22:09:00,62.8,53.3,29.75,North,0,0.0,0.0,71,0.00,,,0.00,WUHU216HW,2013-06-10 05:09:00,
2013-06-09 22:14:00,62.6,53.1,29.75,North,0,0.0,0.0,71,0.00,,,0.00,WUHU216HW,2013-06-10 05:14:00,
2013-06-09 22:19:00,62.6,53.5,29.75,North,0,0.0,0.0,72,0.00,,,0.00,WUHU216HW,2013-06-10 05:19:00,
2013-06-09 22:24:00,62.5,53.3,29.76,North,0,0.0,0.0,72,0.00,,,0.00,WUHU216HW,2013-06-10 05:24:00,
2013-06-09 22:29:00,62.5,53.3,29.75,North,0,0.0,0.0,72,0.00,,,0.00,WUHU216HW,2013-06-10 05:29:00,
2013-06-09 22:34:00,62.3,53.1,29.75,North,0,0.0,0.0,72,0.00,,,0.00,WUHU216HW,2013-06-10 05:34:00,
2013-06-09 22:39:00,62.3,53.5,29.76,North,0,0.0,0.0,73,0.00,,,0.00,WUHU216HW,2013-06-10 05:39:00,
2013-06-09 22:44:00,62.3,53.5,29.75,North,0,0.0,0.0,73,0.00,,,0.00,WUHU216HW,2013-06-10 05:44:00,
2013-06-09 22:49:00,62.3,53.5,29.76,North,0,0.0,0.0,73,0.00,,,0.00,WUHU216HW,2013-06-10 05:49:00,
2013-06-09 22:54:00,62.3,53.1,29.77,North,0,0.0,0.0,72,0.00,,,0.00,WUHU216HW,2013-06-10 05:54:00,
2013-06-09 22:59:00,62.3,53.1,29.77,North,0,0.0,0.0,72,0.00,,,0.00,WUHU216HW,2013-06-10 05:59:00,
2013-06-09 23:05:00,62.3,53.1,29.77,North,0,0.0,0.0,72,0.00,,,0.00,WUHU216HW,2013-06-10 06:05:00,
2013-06-09 23:10:00,62.1,53.0,29.76,North,0,0.0,0.0,72,0.00,,,0.00,WUHU216HW,2013-06-10 06:10:00,
2013-06-09 23:15:00,61.9,53.2,29.76,North,0,0.0,0.0,73,0.00,,,0.00,WUHU216HW,2013-06-10 06:15:00,
2013-06-09 23:20:00,61.9,53.2,29.76,North,0,0.0,0.0,73,0.00,,,0.00,WUHU216HW,2013-06-10 06:20:00,
2013-06-09 23:25:00,61.9,53.2,29.75,North,0,0.0,0.0,73,0.00,,,0.00,WUHU216HW,2013-06-10 06:25:00,
2013-06-09 23:30:00,61.9,53.2,29.75,North,0,0.0,0.0,73,0.00,,,0.00,WUHU216HW,2013-06-10 06:30:00,
2013-06-09 23:35:00,61.7,53.0,29.76,North,0,0.0,0.0,73,0.00,,,0.00,WUHU216HW,2013-06-10 06:35:00,
2013-06-09 23:40:00,61.7,53.0,29.76,North,0,0.0,0.0,73,0.00,,,0.00,WUHU216HW,2013-06-10 06:40:00,
2013-06-09 23:45:00,61.7,53.0,29.77,North,0,0.0,0.0,73,0.00,,,0.00,WUHU216HW,2013-06-10 06:45:00,
2013-06-09 23:50:00,61.6,52.8,29.77,North,0,0.0,0.0,73,0.00,,,0.00,WUHU216HW,2013-06-10 06:50:00,
2013-06-09 23:55:00,61.6,53.2,29.74,North,0,0.0,0.0,74,0.00,,,0.00,WUHU216HW,2013-06-10 06:55:00,